This is the latest recevied weather packets stored in our database for station/object IU3IOK-3. If no packets are shown the sender has not sent any weather packets the latest 10 day(s).
| Time | Temp. | Humidity | Pressure | Rain* | Wind** | Luminosity | Snow |
|---|---|---|---|---|---|---|---|
| 1777389102 | 23.89° C | 44% | 1014 hPa | - | - | - | - |
| 1777388202 | 23.89° C | 44% | 1013.9 hPa | - | - | - | - |
| 1777387302 | 24.44° C | 44% | 1014 hPa | - | - | - | - |
| 1777386402 | 24.44° C | 45% | 1014 hPa | - | - | - | - |
| 1777385502 | 24.44° C | 44% | 1014.2 hPa | - | - | - | - |
| 1777384602 | 23.89° C | 43% | 1014.2 hPa | - | - | - | - |
| 1777383702 | 24.44° C | 40% | 1014.3 hPa | - | - | - | - |
| 1777382802 | 23.89° C | 40% | 1014.4 hPa | - | - | - | - |
| 1777381902 | 24.44° C | 40% | 1014.4 hPa | - | - | - | - |
| 1777381002 | 23.89° C | 40% | 1014.6 hPa | - | - | - | - |
| 1777380102 | 24.44° C | 40% | 1014.7 hPa | - | - | - | - |
| 1777379202 | 24.44° C | 40% | 1014.7 hPa | - | - | - | - |
| 1777378302 | 23.89° C | 40% | 1014.6 hPa | - | - | - | - |
| 1777377402 | 24.44° C | 36% | 1014.7 hPa | - | - | - | - |
| 1777376502 | 24.44° C | 37% | 1014.8 hPa | - | - | - | - |
| 1777375602 | 24.44° C | 37% | 1014.9 hPa | - | - | - | - |
| 1777374702 | 23.89° C | 36% | 1015.2 hPa | - | - | - | - |
| 1777373802 | 23.89° C | 36% | 1015.2 hPa | - | - | - | - |
| 1777372902 | 23.89° C | 37% | 1015.4 hPa | - | - | - | - |
| 1777372002 | 23.89° C | 36% | 1015.6 hPa | - | - | - | - |
| 1777371101 | 23.89° C | 38% | 1015.6 hPa | - | - | - | - |
| 1777370201 | 23.89° C | 38% | 1015.7 hPa | - | - | - | - |
| 1777369302 | 23.33° C | 38% | 1015.7 hPa | - | - | - | - |
| 1777368402 | 23.33° C | 38% | 1015.8 hPa | - | - | - | - |
| 1777367502 | 22.78° C | 40% | 1015.9 hPa | - | - | - | - |
* Rain since midnight (hover to see other rain measurements)
** Current wind speed in m/s (hover to see current wind gust speed)